Total_Precipitation_Accumulation
0.87 0.94 1.05 1.09 0.97 0.76 0.68 0.63 0.56 0.50 0.47 0.38 0.19 0.06 0.05 0.04 0.03 0.01 0.01 0.01 0.02 0.02 0.01 0.01 0.01 0.01 0.01 0.01 0.01 0.01 0.01 0.01 0.01 0.01 0.01 0.00 0.01 0.01
0.66 0.73 0.79 0.84 0.98 0.93 0.79 0.74 0.66 0.56 0.49 0.41 0.35 0.17 0.14 0.10 0.07 0.04 0.03 0.02 0.02 0.02 0.01 0.01 0.01 0.01 0.01 0.01 0.01 0.01 0.00 0.00 0.00 0.00 0.00 0.00 0.01 0.01
0.38 0.44 0.55 0.77 1.00 1.02 0.96 0.85 0.77 0.67 0.54 0.46 0.35 0.21 0.21 0.19 0.16 0.08 0.04 0.02 0.02 0.02 0.01 0.01 0.01 0.00 0.01 0.00 0.00 0.00 0.00 0.00 0.00 0.00 0.00 0.00 0.00 0.01
0.26 0.29 0.40 0.65 0.92 1.07 1.14 1.07 0.94 0.83 0.79 0.70 0.48 0.29 0.25 0.29 0.32 0.26 0.15 0.08 0.06 0.07 0.07 0.04 0.02 0.02 0.02 0.01 0.01 0.01 0.01 0.00 0.00 0.01 0.01 0.01 0.01 0.01
0.32 0.30 0.30 0.42 0.65 0.86 1.00 1.06 1.02 0.98 0.98 0.84 0.64 0.49 0.40 0.32 0.28 0.26 0.22 0.20 0.17 0.17 0.22 0.22 0.17 0.11 0.08 0.06 0.04 0.03 0.02 0.02 0.02 0.01 0.01 0.01 0.01 0.01
0.28 0.28 0.29 0.29 0.38 0.53 0.69 0.83 0.98 1.10 1.13 1.04 0.86 0.62 0.57 0.41 0.28 0.26 0.26 0.26 0.26 0.23 0.23 0.28 0.29 0.24 0.18 0.15 0.12 0.10 0.08 0.07 0.05 0.04 0.03 0.02 0.02 0.02
0.25 0.20 0.19 0.20 0.23 0.31 0.40 0.59 0.87 1.08 1.16 1.16 1.08 0.82 0.61 0.45 0.29 0.27 0.28 0.34 0.34 0.33 0.34 0.32 0.32 0.31 0.31 0.31 0.29 0.25 0.21 0.18 0.15 0.11 0.09 0.08 0.06 0.04
0.28 0.23 0.18 0.14 0.15 0.19 0.23 0.30 0.49 0.67 0.84 0.91 0.93 0.81 0.67 0.55 0.45 0.35 0.26 0.24 0.26 0.31 0.35 0.43 0.45 0.43 0.49 0.48 0.50 0.55 0.50 0.40 0.33 0.28 0.24 0.20 0.17 0.14
0.29 0.28 0.21 0.16 0.14 0.14 0.17 0.21 0.25 0.31 0.41 0.57 0.68 0.72 0.78 0.66 0.52 0.38 0.29 0.25 0.27 0.29 0.28 0.34 0.42 0.46 0.53 0.55 0.56 0.57 0.54 0.47 0.40 0.37 0.33 0.28 0.23 0.20
0.24 0.21 0.21 0.21 0.22 0.23 0.17 0.18 0.23 0.28 0.31 0.29 0.40 0.61 0.74 0.84 0.71 0.53 0.46 0.37 0.31 0.26 0.23 0.23 0.27 0.32 0.36 0.39 0.40 0.36 0.34 0.32 0.31 0.31 0.29 0.25 0.22 0.19
0.29 0.24 0.23 0.26 0.40 0.33 0.19 0.21 0.27 0.34 0.33 0.37 0.42 0.48 0.51 0.59 0.63 0.56 0.48 0.40 0.35 0.31 0.29 0.27 0.23 0.19 0.16 0.16 0.17 0.16 0.14 0.13 0.12 0.12 0.13 0.13 0.13 0.13
0.38 0.33 0.41 0.37 0.41 0.31 0.19 0.26 0.34 0.34 0.33 0.37 0.36 0.33 0.32 0.35 0.39 0.41 0.47 0.48 0.43 0.38 0.31 0.26 0.24 0.21 0.16 0.11 0.08 0.06 0.05 0.05 0.05 0.05 0.05 0.05 0.06 0.06
0.41 0.41 0.36 0.39 0.30 0.24 0.19 0.19 0.31 0.28 0.25 0.30 0.28 0.27 0.25 0.25 0.27 0.33 0.39 0.40 0.43 0.46 0.38 0.29 0.24 0.21 0.16 0.13 0.10 0.07 0.05 0.04 0.03 0.03 0.04 0.05 0.05 0.05
0.38 0.38 0.34 0.44 0.32 0.19 0.13 0.16 0.22 0.21 0.20 0.27 0.28 0.28 0.25 0.22 0.20 0.23 0.27 0.28 0.30 0.33 0.31 0.25 0.22 0.19 0.18 0.15 0.14 0.13 0.11 0.09 0.07 0.06 0.05 0.07 0.06 0.06
0.31 0.38 0.41 0.36 0.24 0.16 0.17 0.19 0.19 0.19 0.24 0.27 0.24 0.19 0.16 0.15 0.20 0.25 0.31 0.33 0.33 0.28 0.25 0.25 0.23 0.21 0.19 0.16 0.13 0.12 0.12 0.11 0.09 0.09 0.08 0.07 0.07 0.08
0.26 0.32 0.33 0.26 0.21 0.20 0.21 0.20 0.21 0.24 0.26 0.21 0.14 0.09 0.09 0.11 0.14 0.17 0.26 0.37 0.46 0.47 0.44 0.43 0.37 0.31 0.28 0.24 0.18 0.15 0.15 0.15 0.14 0.15 0.13 0.11 0.11 0.10
0.44 0.37 0.35 0.34 0.30 0.24 0.19 0.18 0.19 0.20 0.18 0.15 0.13 0.13 0.13 0.14 0.11 0.10 0.12 0.18 0.26 0.32 0.38 0.43 0.45 0.43 0.38 0.33 0.31 0.27 0.24 0.22 0.20 0.20 0.17 0.14 0.13 0.13
0.74 0.72 0.69 0.65 0.58 0.42 0.23 0.13 0.12 0.13 0.14 0.13 0.13 0.12 0.11 0.11 0.11 0.10 0.09 0.12 0.15 0.19 0.23 0.27 0.34 0.42 0.46 0.43 0.35 0.32 0.30 0.26 0.24 0.24 0.22 0.18 0.16 0.19
0.84 0.87 0.84 0.70 0.54 0.44 0.27 0.14 0.10 0.09 0.09 0.09 0.09 0.09 0.08 0.08 0.08 0.07 0.06 0.07 0.09 0.11 0.15 0.20 0.24 0.31 0.37 0.35 0.33 0.32 0.32 0.32 0.32 0.30 0.29 0.27 0.23 0.24
0.64 0.62 0.55 0.45 0.37 0.25 0.21 0.16 0.09 0.08 0.08 0.08 0.08 0.07 0.06 0.05 0.05 0.06 0.06 0.04 0.05 0.05 0.07 0.10 0.12 0.14 0.18 0.21 0.23 0.22 0.24 0.28 0.30 0.26 0.24 0.25 0.23 0.25
0.33 0.27 0.22 0.18 0.16 0.12 0.11 0.09 0.05 0.04 0.05 0.05 0.06 0.06 0.05 0.05 0.04 0.03 0.04 0.04 0.04 0.05 0.05 0.06 0.07 0.09 0.13 0.19 0.22 0.18 0.17 0.24 0.26 0.23 0.22 0.24 0.25 0.25
0.13 0.11 0.08 0.05 0.05 0.05 0.03 0.03 0.02 0.02 0.03 0.03 0.03 0.04 0.04 0.04 0.04 0.04 0.04 0.05 0.05 0.05 0.05 0.05 0.06 0.08 0.12 0.15 0.18 0.17 0.17 0.21 0.31 0.39 0.34 0.30 0.24 0.21
0.06 0.06 0.03 0.02 0.01 0.01 0.02 0.03 0.03 0.03 0.03 0.03 0.03 0.03 0.03 0.03 0.03 0.03 0.04 0.05 0.05 0.05 0.05 0.05 0.06 0.09 0.11 0.13 0.16 0.20 0.23 0.24 0.26 0.33 0.41 0.47 0.37 0.23